This is the latest recevied weather packets stored in our database for station/object SR4DIG-13. If no packets are shown the sender has not sent any weather packets the latest 10 day(s).
| Time | Temp. | Humidity | Pressure | Rain* | Wind** | Luminosity | Snow |
|---|---|---|---|---|---|---|---|
| 1778073852 | 27.22° C | 30% | 1003.4 hPa | 2.29 mm | - | - | - |
| 1778073551 | 27.22° C | 30% | 1003.3 hPa | 2.29 mm | - | - | - |
| 1778073250 | 26.67° C | 30% | 1003.3 hPa | 2.29 mm | - | - | - |
| 1778072950 | 26.11° C | 30% | 1003.4 hPa | 2.29 mm | - | - | - |
| 1778072649 | 26.11° C | 30% | 1003.5 hPa | 2.29 mm | - | - | - |
| 1778072348 | 26.11° C | 31% | 1003.5 hPa | 2.29 mm | - | - | - |
| 1778072047 | 26.11° C | 31% | 1003.5 hPa | 2.29 mm | - | - | - |
| 1778071746 | 25.56° C | 30% | 1003.7 hPa | 2.29 mm | - | - | - |
| 1778071445 | 25.56° C | 30% | 1003.6 hPa | 2.29 mm | - | - | - |
| 1778071144 | 25.56° C | 30% | 1003.4 hPa | 2.29 mm | - | - | - |
| 1778070843 | 26.11° C | 31% | 1003.3 hPa | 2.29 mm | - | - | - |
| 1778070232 | 26.11° C | 31% | 1003.5 hPa | 2.29 mm | - | - | - |
| 1778069931 | 26.67° C | 34% | 1003.6 hPa | 2.29 mm | - | - | - |
| 1778069330 | 27.78° C | 35% | 1003.8 hPa | 2.29 mm | - | - | - |
| 1778069029 | 27.22° C | 35% | 1003.9 hPa | 2.29 mm | - | - | - |
| 1778068728 | 27.22° C | 35% | 1003.9 hPa | 2.29 mm | - | - | - |
| 1778068428 | 26.67° C | 37% | 1003.9 hPa | 2.29 mm | - | - | - |
| 1778067878 | 26.11° C | 37% | 1004 hPa | 2.29 mm | - | - | - |
| 1778067577 | 25.56° C | 40% | 1004.1 hPa | 2.29 mm | - | - | - |
| 1778067276 | 25° C | 39% | 1004.1 hPa | 2.29 mm | - | - | - |
| 1778066975 | 24.44° C | 40% | 1004.3 hPa | 2.29 mm | - | - | - |
| 1778066558 | 24.44° C | 40% | 1004.5 hPa | 2.29 mm | - | - | - |
| 1778066258 | 24.44° C | 40% | 1004.5 hPa | 2.29 mm | - | - | - |
| 1778065957 | 24.44° C | 42% | 1004.6 hPa | 2.29 mm | - | - | - |
| 1778065656 | 23.89° C | 44% | 1004.7 hPa | 2.29 mm | - | - | - |
* Rain since midnight (hover to see other rain measurements)
** Current wind speed in m/s (hover to see current wind gust speed)